Location: Azul
(36.7830°S, 59.8500°W)
Time: 19:24:08
(UTC-03:00)

First-Move - Pass Details

Date: 29 October 2021
Orbit: 575 x 664 km, 97.6° (Epoch: 07 December)

Event Time Altitude Azimuth Distance (km) Brightness Sun altitude
Rises 05:13:42 0° 356° (N) 2,926 ? -9.0°
Reaches altitude 10° 05:15:58 10° 349° (N) 2,040 ? -8.5°
Maximum altitude 05:20:12 42° 278° (W) 944 ? -7.8°
Drops below altitude 10° 05:24:35 10° 207° (SSW) 2,106 ? -7.0°
Sets 05:26:57 0° 199° (SSW) 3,033 ? -6.5°
